Regional Weather Roundup
Issued by NWS

Home | Current Version | Previous Version | Graphics & Text | Print | Product List | Glossary On
Versions: 1 2 3 4 5 6 7 8 9 10 11 12 13 14 15 16 17 18 19 20 21 22 23 24 25 26 27 28 29 30 31 32 33 34 35 36 37 38 39 40 41 42 43 44 45 46 47 48 49 50
000
ASUS43 KIND 072059
RWRIN

WEATHER ROUNDUP FOR INDIANA
NATIONAL WEATHER SERVICE INDIANAPOLIS IN
400 PM EST SUN FEB 07 2016

NOTE: "FAIR" INDICATES FEW OR NO CLOUDS BELOW 12,000 FEET WITH NO
SIGNIFICANT WEATHER AND/OR OBSTRUCTIONS TO VISIBILITY.

* - STATION DOES NOT REPORT WEATHER SUCH AS PRECIPITATION OR FOG.

+ - STATION NOT QUALITY CONTROLLED BY THE NATIONAL WEATHER SERVICE.
    USE DATA WITH CAUTION...ESPECIALLY DEWPOINT AND RELATIVE
    HUMIDITY OBSERVATIONS.

INZ001>003-010>013-019-020-072200-
NORTHWEST INDIANA

CITY           SKY/WX    TMP DP  RH WIND       PRES   REMARKS
GARY /AIRPORT/ PTSUNNY   46  30  53 SW17G35   29.75S
RENSSELAER +   CLOUDY    45  32  61 SW16G23   29.78S

$$

LMZ046-743>745-072200-
SOUTHERN LAKE MICHIGAN

STATION/POSITION TIME  TEMP    WIND        PRES    WAVE
                       AIR SEA DIR/SP/G            HT
                 (UTC) (F)     (DEG/KT/KT) (MB)    (FT)
BURNS HARBOR     2000   45     230/ 15     1007.8S
MICHIGAN CITY    2000   44     200/ 26/ 30   N/A

$$

INZ004-005-014>016-021>024-072200-
NORTH CENTRAL INDIANA

CITY           SKY/WX    TMP DP  RH WIND       PRES   REMARKS
GOSHEN         MOSUNNY   47  30  51 SW16G26   29.75R
PERU/GRISSOM   MOSUNNY   49  30  47 SW15      29.77R
SOUTH BEND     CLOUDY    45  30  55 SW13G28   29.76R

$$

INZ006>009-017-018-025>027-072200-
NORTHEAST INDIANA

CITY           SKY/WX    TMP DP  RH WIND       PRES   REMARKS
ANGOLA *+      SUNNY     45  34  65 SW14      29.74S
FORT WAYNE     CLOUDY    49  29  46 S17       29.78F

$$

INZ028-029-035-036-043>045-051>053-072200-
WEST CENTRAL INDIANA

CITY           SKY/WX    TMP DP  RH WIND       PRES   REMARKS
GREENCASTLE +  SUNNY     52  19  28 SW9G22    29.83R
LAFAYETTE      MOSUNNY   50  30  46 W17G25    29.79S
TERRE HAUTE    MOSUNNY   52  30  43 SW20G31   29.84R

$$

INZ030>032-037>040-046>048-054>057-064-065-072200-
CENTRAL INDIANA

CITY           SKY/WX    TMP DP  RH WIND       PRES   REMARKS
GREENWOOD *+   CLOUDY    54  32  43 SW14G25   29.83F
INDIANAPOLIS   PTSUNNY   52  24  33 SW23G32   29.80F
-EAGLE CREEK   CLOUDY    52  27  38 SW16G28   29.80F
KOKOMO *+        N/A     50  28  43 SW24G35   29.79R
MT COMFORT *+  CLOUDY    52  28  40 SW17G28   29.82F
SHELBYVILLE    MOSUNNY   52  30  43 SW20G29   29.83F

$$

INZ033-034-041-042-049-050-058-059-072200-
EAST CENTRAL INDIANA

CITY           SKY/WX    TMP DP  RH WIND       PRES   REMARKS
MUNCIE         CLOUDY    52  29  41 SW13G21   29.80F

$$

INZ060-061-067>069-081>083-085>088-072200-
SOUTHWEST INDIANA

CITY           SKY/WX    TMP DP  RH WIND       PRES   REMARKS
EVANSVILLE     SUNNY     57  25  29 SW21G30   29.90F
HUNTINGBURG *+ SUNNY     55  30  38 SW16G31   29.90F

$$

INZ062-063-066-070>080-084-089>092-072200-
SOUTH CENTRAL AND SOUTHEAST INDIANA

CITY           SKY/WX    TMP DP  RH WIND       PRES   REMARKS
BLOOMINGTON    SUNNY     52  28  39 SW10      29.84F
MADISON *+     CLOUDY    54  19  26 S15G26    29.91F
SEYMOUR +      SUNNY     55  30  38 SW21G29   29.88F

$$




USA.gov is the U.S. government's official web portal to all federal, state and local government web resources and services.